IRIDIUM 53 [+]

Last updated on Sept. 17, 2018, 4:46 p.m. UTC

1 25173U 98010E   18260.51216898  .00279316 -12498-5  81079-3 0  9999
2 25173  86.4059 159.0176 0358653 170.4082 190.4273 15.34377092 77341

Satellite is not in orbit.